Location: ????????
(55.7283°N, 38.0417°E)
Time: 17:29:18
(UTC+00:00)

Daily predictions for brighter satellites

Satellite Brightness Start Highest point End
(mag) Time Altitude Azimuth Time Altitude Azimuth Time Altitude Azimuth
Cosmos 2016 Rocket 4.5 15:09:47 10° SSE 15:15:17 37° E 15:20:51 10° NNE
Cosmos 1933 4.5 15:12:09 10° NNW 15:16:06 50° W 15:20:00 10° S
BREEZE-M DEB (TANK) 4.0 15:14:18 10° WSW 15:16:20 26° S 15:19:28 10° ESE
STARLINK-29 3.6 15:13:25 10° WSW 15:16:48 54° S 15:20:09 10° E
Cosmos 1633 3.5 15:14:00 10° SSE 15:17:05 27° E 15:20:11 10° NNE
Cosmos 2151 4.4 15:15:00 10° SW 15:19:05 42° WNW 15:23:14 10° N
Cosmos 371 Rocket 4.3 15:15:05 10° SW 15:19:47 48° NW 15:24:30 10° NNE
Cosmos 1782 2.8 15:18:19 10° N 15:22:23 83° E 15:26:24 10° SSE
Meteor 2-6 Rocket 4.2 15:19:58 10° N 15:25:39 66° ENE 15:31:07 10° SSE
STARLINK-52 3.6 15:22:57 10° WSW 15:26:17 54° S 15:29:38 10° ESE
SJ 16-02 3.2 15:24:21 10° N 15:26:46 14° NE 15:29:09 10° ENE
deb Kosmos-1763 4.0 15:23:22 10° NNW 15:27:04 70° ENE 15:30:44 10° SE
Cosmos 1777 Rocket 4.3 15:22:22 10° NNW 15:27:32 48° NE 15:32:38 10° SE
Cosmos 1943 Rocket 3.6 15:24:56 10° SE 15:28:11 16° E 15:31:26 10° ENE
Cosmos 292 Rocket 4.4 15:24:08 10° SSE 15:28:27 34° ESE 15:32:46 10° NE
Envisat 3.9 15:23:59 10° S 15:28:58 56° W 15:34:00 10° NNW
SL-4 R/B 3.9 15:25:56 10° W 15:30:13 32° SSW 15:34:21 10° SE
SJ-6B 4.4 15:29:11 10° E 15:31:28 16° NE 15:33:45 10° NNE
YAOGAN 1 2.5 15:29:52 10° SSE 15:34:10 71° ENE 15:38:30 10° NNW
SKYMED 2 3.7 15:30:03 10° NNE 15:34:21 55° E 15:38:36 10° S
Lacrosse 4 Rocket 2.4 15:32:57 10° S 15:36:33 28° ESE 15:40:14 10° ENE
CZ-4B R/B 4.2 15:34:31 10° NNW 15:36:39 16° WNW 15:38:47 10° W
Cosmos 1862 4.1 15:33:51 10° SSE 15:37:20 29° E 15:40:50 10° NNE
Cosmos 1238 Rocket 4.2 15:31:19 10° SSE 15:37:27 55° E 15:43:56 10° NNE
Cosmos 1992 Rocket 4.2 15:34:58 10° S 15:39:59 49° ESE 15:45:03 10° NE
Cosmos 2297 4.1 15:37:08 10° S 15:42:25 42° ESE 15:47:42 10° NE
YAOGAN 6 4.0 15:39:51 10° S 15:43:13 42° W 15:46:35 10° NNW
Cosmos 2173 Rocket 4.0 15:37:06 10° S 15:43:27 75° E 15:49:51 10° NNE
Cosmos 1633 Rocket 4.0 15:40:21 10° SE 15:43:57 26° E 15:47:36 10° NNE
COSMOS 2487 4.2 15:42:42 10° N 15:44:53 16° NE 15:46:04 14° ENE
Cosmos 1666 Rocket 4.2 15:42:45 10° SSE 15:46:46 33° E 15:50:48 10° NNE
STARLINK-60 3.9 15:45:40 10° W 15:48:49 42° SSW 15:51:45 11° ESE
Cosmos 1825 4.3 15:46:22 10° SW 15:49:40 28° WNW 15:52:59 10° N
NOSS 3-2 (C) 4.4 15:48:30 10° WNW 15:54:45 46° N 16:01:14 13° ENE
ADEOS Rocket 3.8 15:48:14 10° NNE 15:55:38 49° E 16:03:07 10° S
NOSS 3-2 (A) 4.4 15:50:27 10° WNW 15:56:47 46° N 16:02:59 14° ENE
Cosmos 2369 Rocket 3.3 15:53:48 10° SSE 15:57:56 21° ESE 16:01:27 12° ENE
CZ-2D R/B 3.3 15:54:13 10° SSE 15:58:07 87° WSW 16:02:04 10° NNW
Cosmos 1844 Rocket 4.3 15:53:33 10° W 15:58:28 30° NNW 16:03:25 10° NNE
Cosmos 1812 2.7 15:55:23 10° N 15:59:14 60° ENE 16:03:04 10° SSE
Cosmos 2263 Rocket 4.2 15:55:35 10° WNW 15:59:30 19° NNW 16:03:28 10° NNE
Cosmos 2082 Rocket 4.2 15:54:48 10° NW 15:59:41 31° WSW 16:04:34 10° SSW
Cosmos 2100 Rocket 4.1 15:53:27 10° SSW 15:59:49 84° W 16:06:11 10° N
H-2A R/B 2.5 15:56:15 10° SE 16:01:17 43° ENE 16:06:25 10° N
USA 234 3.3 15:55:31 14° E 16:01:18 83° N 16:07:53 10° W
Okean-O 4.4 15:57:50 10° SSW 16:01:56 36° W 16:06:03 10° NNW
SJ-11-01 4.4 15:57:38 10° SE 16:02:10 51° ENE 16:06:42 10° N
Cosmos 2242 Rocket 4.3 15:58:20 10° N 16:02:28 34° ENE 16:06:36 10° SE
CZ-2C R/B 3.7 15:59:49 10° SE 16:05:13 41° ENE 16:10:33 10° N
Resurs 01 Rocket 3.1 16:04:31 17° ENE 16:05:24 18° NE 16:08:24 10° N
USA 229 DEB 4.3 16:00:11 10° S 16:05:53 32° ESE 16:10:49 14° ENE
USA 229 4.3 16:00:19 10° S 16:06:00 32° ESE 16:10:52 14° ENE
STARLINK-80 4.1 16:02:27 10° SW 16:06:03 40° SSE 16:08:07 21° ESE
HJ-1C 3.3 16:03:19 10° SSE 16:06:35 62° ENE 16:09:52 10° N
Meteor 1-27 Rocket 3.6 16:01:14 10° NNW 16:06:47 74° ENE 16:12:21 10° SSE
SL-27 R/B 2.2 16:03:29 10° NNW 16:06:54 79° ENE 16:10:14 10° SSE
Cosmos 44 3.0 16:04:08 10° NW 16:08:31 75° NE 16:12:05 16° SE
CZ-4 R/B 2.6 16:04:51 10° S 16:08:55 47° W 16:12:59 10° NNW
Cosmos 1459 Rocket 4.1 16:06:04 10° SSW 16:12:08 76° WNW 16:18:14 10° N
Ariane Rocket 3.0 16:07:19 10° SSE 16:12:22 67° ENE 16:17:28 10° NNW
Cosmos 1867 4.2 16:07:19 10° WSW 16:12:40 53° NNW 16:17:56 11° NE
NOSS 3-1 (A) 4.5 16:09:07 10° SSE 16:13:21 22° ESE 16:14:54 20° E
STARLINK-43 3.7 16:09:59 10° WSW 16:13:36 52° S 16:15:28 25° ESE
USA 116 3.5 16:10:20 10° NNE 16:13:55 70° ESE 16:17:58 10° S
Cosmos 1939 Rocket 3.5 16:10:14 10° S 16:14:19 61° WSW 16:18:28 10° NNW
Cosmos 2061 Rocket 4.0 16:09:05 10° S 16:15:31 88° E 16:21:56 10° NNE
Lacrosse 5 rocket 1.5 16:12:00 10° WSW 16:16:29 83° SSE 16:19:19 23° ENE
COSMO-SKYMED 1 3.2 16:18:08 10° N 16:22:26 60° WNW 16:26:42 10° SSW
Cosmos 1725 Rocket 3.9 16:17:32 10° S 16:23:42 81° E 16:29:56 10° NNE
CRYOSAT 2 4.3 16:18:54 10° SSE 16:23:48 74° E 16:28:43 10° N
Cosmos 1470 Rocket 4.0 16:22:37 10° SSE 16:26:37 37° E 16:30:41 10° NNE
Cosmos 1805 Rocket 3.9 16:23:00 10° SSW 16:27:22 67° WNW 16:31:45 10° N
Cosmos 1862 Rocket 3.4 16:23:22 10° N 16:27:43 80° ENE 16:32:04 10° SSE
IRS-1A Rocket 4.1 16:22:18 10° SSE 16:27:49 82° ENE 16:33:21 10° NNW
Sich 1 3.0 16:24:14 10° SSW 16:28:32 84° WNW 16:32:51 10° N
Cosmos 2285 Rocket 4.0 16:22:19 10° NNW 16:28:43 77° ENE 16:35:07 10° SSE
Tsikada Rocket 4.4 16:25:17 10° NNW 16:31:37 70° W 16:37:58 10° S
Cosmos 1937 Rocket 4.3 16:26:52 10° NNW 16:31:39 33° NE 16:33:20 27° E
CENTAUR R/B 3.5 16:26:41 10° WNW 16:33:25 48° N 16:38:54 20° ENE
FREGAT/IRIS 2.2 16:33:59 63° ENE 16:34:00 63° ENE 16:36:44 10° N
Cosmos 2297 Rocket 3.6 16:30:02 10° NNW 16:34:38 24° NNE 16:36:42 20° ENE
Cosmos 1802 Rocket 4.5 16:29:27 10° SSW 16:35:42 65° WNW 16:42:06 10° N
Nadezhda 4 Rocket 4.5 16:30:24 10° N 16:36:12 38° ENE 16:39:03 25° ESE
ARGOS 3.1 16:33:17 10° SSE 16:38:39 67° ENE 16:44:03 10° NNW
ATLAS 3B R/B 3.4 16:33:52 10° WNW 16:40:11 43° N 16:44:39 19° ENE
USA 186 3.1 16:42:26 21° N 16:42:26 21° N 16:43:27 10° N
Cosmos 2278 Rocket 3.3 16:36:26 10° WSW 16:41:48 42° NW 16:47:11 10° NNE
SPOT 3 Rocket 3.6 16:38:23 20° SE 16:41:50 55° ENE 16:46:57 10° N
STARLINK-61 4.5 16:38:56 10° SW 16:42:22 30° SSE 16:42:32 30° SSE
Cosmos 1703 Rocket 3.7 16:39:24 10° N 16:43:43 49° ENE 16:45:08 35° ESE
FALCON 9 DEB 4.2 16:40:44 10° W 16:43:57 37° SSW 16:44:51 31° SSE
STARLINK-26 3.8 16:44:52 10° SW 16:48:08 40° SSE 16:48:09 40° SSE
STARLINK-48 3.8 16:46:17 10° WSW 16:50:02 46° SSE 16:50:28 44° SE
Cosmos 1633 4.4 16:48:35 10° SW 16:51:51 32° WNW 16:55:10 10° N
Cosmos 2227 Rocket 3.4 16:47:45 10° NNW 16:52:28 26° NNE 16:53:54 23° NE
USA 238 DEB 4.2 16:46:21 10° WNW 16:53:10 51° NNE 16:56:40 29° ENE
USA 238 4.2 16:46:27 10° WNW 16:53:15 51° NNE 16:56:45 29° ENE
STARLINK-29 4.1 16:50:05 10° W 16:53:17 36° SSW 16:53:46 34° S
Cosmos 44 Rocket 3.5 16:50:40 10° NW 16:55:19 52° NNE 16:56:23 43° ENE
Cosmos 405 3.8 16:51:59 10° N 16:54:31 37° NNE 16:54:31 37° NNE
NOSS 8 (A) 4.1 16:52:53 10° SW 16:55:56 78° NW 16:55:59 77° NNW
Meteor 2-4 Rocket 4.3 16:52:37 10° N 16:58:04 39° ENE 16:58:59 36° E
STARLINK-52 4.2 16:59:39 10° W 17:02:49 35° SSW 17:02:54 35° SSW
Okean 1-7 2.9 16:58:54 10° N 17:03:10 62° ENE 17:03:33 59° ESE
ARGOS Delta rocket 3.5 17:02:26 43° SE 17:03:46 71° ENE 17:08:12 10° N
SJ-6B 2.7 17:04:29 43° S 17:05:38 80° WSW 17:09:25 10° NNW
USA 267 4.4 17:07:23 23° SSE 17:07:23 23° SSE 17:11:16 10° S
SJ 16-02 1.5 17:02:03 10° NNW 17:06:25 52° ENE 17:06:26 52° ENE
NOSS 3-1 (C) 3.4 17:02:14 10° SSW 17:07:49 60° SE 17:10:28 34° ENE
Cosmos 921 Rocket 3.0 17:04:39 10° SSW 17:09:11 88° ESE 17:13:02 14° NNE
Cosmos 2219 3.9 17:04:08 10° NNW 17:09:26 36° NE 17:10:19 34° ENE
SL-08 RB Rocket 3.5 17:08:07 39° SSE 17:09:46 84° ENE 17:14:17 10° NNW
Cosmos 1943 Rocket 2.0 17:05:27 10° SSW 17:11:00 72° ESE 17:14:32 23° NE
Cosmos 1898 Rocket 3.4 17:06:53 10° NNW 17:12:05 67° ENE 17:13:07 53° ESE
Lacrosse 4 Rocket 1.9 17:10:47 10° SW 17:14:59 59° NW 17:16:50 32° NNE
Cosmos 1092 Rocket 4.3 17:09:22 10° N 17:15:28 45° ENE 17:16:14 43° E
Meteor 1-22 4.5 17:11:50 10° S 17:17:06 62° E 17:22:23 10° NNE
Cosmos 2233 Rocket 4.2 17:11:40 10° SSW 17:17:47 69° WNW 17:24:00 10° N
Genesis I 4.3 17:14:18 10° NW 17:17:28 34° N 17:17:28 34° N
COSMOS 2487 3.2 17:17:00 10° NNW 17:19:38 49° NNW 17:19:38 49° NNW
Cosmos 1633 Rocket 4.1 17:17:22 10° SW 17:21:34 46° WNW 17:25:47 10° N
Cosmos 1933 Rocket 3.4 17:20:34 10° S 17:25:01 89° NW 17:29:26 10° NNE
Cosmos 2297 4.4 17:21:02 10° WSW 17:26:34 51° NW 17:32:05 10° NNE
Terra 3.9 17:29:58 15° NNE 17:29:58 15° NNE 17:31:27 10° N
Cosmos 1072 Rocket 4.4 17:22:45 10° S 17:29:07 74° E 17:35:27 10° NNE
ERS-1 Rocket 4.3 17:35:29 26° NNE 17:35:29 26° NNE 17:38:23 10° N
Resurs 1-3 3.6 17:35:53 79° WSW 17:35:54 79° WSW 17:40:19 10° NNW
Meteor 1-18 Rocket 4.4 17:30:47 10° NNW 17:36:45 77° W 17:39:39 32° S
H-2A R/B 3.2 17:35:39 10° SSW 17:40:44 43° W 17:45:57 10° NNW
Cosmos 858 Rocket 4.3 17:35:47 10° NNW 17:41:04 82° ENE 17:41:08 82° ENE
ADEOS Rocket 4.2 17:33:52 10° NNE 17:41:14 56° WNW 17:48:47 10° SW
Cosmos 2369 Rocket 2.1 17:35:34 10° SSW 17:41:14 88° ESE 17:43:21 41° NE
Resurs 01 Rocket 1.9 17:42:04 62° NNW 17:42:04 62° NNW 17:45:49 10° NNW
USA 234 3.3 17:42:52 50° SSE 17:44:31 68° SSW 17:51:04 10° WNW
CZ-2C R/B 4.1 17:39:23 10° S 17:45:02 49° W 17:50:37 10° NNW
Cosmos 2263 Rocket 4.0 17:41:37 10° NNW 17:45:39 19° NNE 17:46:41 18° NNE
NOSS 3-2 (C) 4.1 17:40:06 10° WNW 17:46:54 57° NNE 17:48:40 47° ENE
Cosmos 1513 Rocket 4.3 17:40:54 10° S 17:47:00 87° E 17:53:13 10° NNE
NOSS 3-2 (A) 4.0 17:41:48 10° NW 17:48:46 66° NNE 17:50:23 54° E
Meteor 2-11 Rocket 4.3 17:42:54 10° S 17:49:01 85° E 17:55:09 10° NNE
MetOp-B 4.2 17:49:54 65° NNE 17:49:54 65° NNE 17:54:45 10° NNW
Okean 1 4.3 17:46:31 10° NNW 17:49:41 45° NW 17:49:41 45° NW
Cosmos 1891 Rocket 4.4 17:48:43 10° SSW 17:54:54 84° WNW 18:01:17 10° N
Lacrosse 5 rocket 2.2 17:51:18 10° W 17:54:58 56° WNW 17:54:58 56° WNW
USA 229 DEB 3.6 17:49:31 10° SW 17:56:12 88° NW 17:58:19 49° NE
USA 229 3.6 17:49:37 10° SW 17:56:18 88° NW 17:58:22 50° NE
Cosmos 2263 4.1 17:51:07 10° SSW 17:56:31 78° SSW 17:56:31 78° SSW
NOSS 3-1 (A) 3.4 17:57:23 10° SW 18:02:26 69° SSW 18:02:26 69° SSW
Meteor 1-20 Rocket 4.4 17:59:54 10° SSW 18:05:21 68° WNW 18:10:55 10° NNE
CZ-2C R/B 4.3 18:00:04 10° NNE 18:02:11 24° NNE 18:02:11 24° NNE
Spot 2 Rocket 4.1 18:10:12 52° NNW 18:10:12 52° NNW 18:14:03 10° NNW
SPOT 5 4.4 18:16:01 30° N 18:16:01 30° N 18:18:51 10° N
Cosmos 1937 Rocket 3.9 18:08:46 10° NNW 18:13:31 60° W 18:13:31 60° W
Cosmos 1464 Rocket 4.4 18:13:03 10° SSW 18:19:21 62° WNW 18:25:43 10° N
Cosmos 2297 Rocket 2.8 18:14:07 10° NNW 18:18:31 50° N 18:18:31 50° N
CENTAUR R/B 3.1 18:17:55 10° NW 18:25:22 65° NNE 18:26:05 62° NE
Cosmos 2278 Rocket 4.4 18:23:20 10° WNW 18:27:25 20° NNW 18:30:30 13° NNE
Cosmos 2026 Rocket 4.2 18:23:17 10° NNW 18:28:38 66° NNW 18:28:38 66° NNW
ATLAS 3B R/B 3.0 18:25:31 10° NW 18:31:55 53° NNE 18:31:55 53° NNE
BREEZE-M DEB (TANK) 4.3 18:17:09 10° W 18:32:41 50° SSW 18:32:41 50° SSW
Cosmos 2034 Rocket 4.3 18:36:08 62° W 18:36:28 63° WNW 18:42:37 10° N
Cosmos 2227 Rocket 3.0 18:31:48 10° NNW 18:35:44 45° NNW 18:35:44 45° NNW
Meteor 2-4 Rocket 4.5 18:35:39 10° NNW 18:41:06 51° W 18:41:06 51° W
USA 238 DEB 3.8 18:37:36 10° NW 18:44:07 76° WNW 18:44:07 76° WNW
SJ 16-02 3.6 18:41:03 10° NW 18:43:28 23° WNW 18:43:28 23° WNW
USA 238 3.8 18:37:43 10° NW 18:44:12 76° WNW 18:44:12 76° WNW
Cosmos 2219 4.2 18:48:20 10° NW 18:52:15 44° NW 18:52:15 44° NW
Lacrosse 4 Rocket 4.1 18:51:09 10° WNW 18:53:11 19° NW 18:53:11 19° NW
Cosmos 1943 Rocket 3.6 18:50:09 10° WSW 18:55:13 34° NW 18:56:09 32° NNW
NOSS 3-1 (C) 4.1 18:52:54 10° WSW 18:57:56 53° NW 18:57:56 53° NW
Terra 4.2 19:08:51 18° NNW 19:08:51 18° NNW 19:10:07 10° NNW
Resurs 01 Rocket 4.4 19:19:38 14° WNW 19:19:38 14° WNW 19:21:11 10° NW
Cosmos 2369 Rocket 3.9 19:20:59 10° W 19:25:17 30° NW 19:25:17 30° NW
Cosmos 2263 Rocket 4.1 19:25:51 10° NNW 19:28:22 24° NNW 19:28:22 24° NNW
Cosmos 2297 Rocket 4.5 19:58:33 10° NW 20:00:20 19° WNW 20:00:20 19° WNW
CENTAUR R/B 4.0 20:08:42 10° NW 20:13:16 39° WNW 20:13:16 39° WNW
ATLAS 3B R/B 4.3 20:16:25 10° NW 20:19:10 27° NW 20:19:10 27° NW
ATLAS 2AS CENTAUR R/B 4.4 22:24:53 31° NE 22:24:53 31° NE 22:28:35 10° NE
Cosmos 2333 Rocket 4.3 23:31:45 23° NE 23:31:45 23° NE 23:33:54 10° NE
Cosmos 2322 Rocket 4.1 23:48:22 24° NNE 23:48:22 24° NNE 23:50:50 10° NNE
CZ-4C R/B 4.1 23:51:33 25° ENE 23:51:33 25° ENE 23:54:34 10° ENE
Cosmos 2237 Rocket 4.0 23:56:13 25° ENE 23:56:13 25° ENE 23:59:09 10° NE
